星链-36411(STARLINK-36411)

导读 | 豆包AI

STARLINK-36411是美国太空探索技术公司SpaceX星链星座的成员,于2026年1月29日发射升空。星链项目旨在构建全球卫星互联网星座,为全球偏远地区、海洋航空等场景提供高速低延迟宽带网络服务,该卫星的入轨进一步扩充了星链星座的运营规模,提升星座服务覆盖能力与网络容量。

基本信息
目录编号:
67608
目录名称:
STARLINK-36411
国际标识:
2026-018V
轨道中心:
EARTH
卫星名称:
星链-36411
卫星全名:
星链-36411(STARLINK-36411)
卫星状态:
在轨 (已飞行44 天)
发射日期:
2026-01-29 UTC
国别 :
美国 (US)
星等 :
--
轨道信息
数据来源 国际轨道数据
星历时间: 2026-03-13T22:00:01+0800
14小时前
查看轨道信息
半长轴: 6787.657km
偏心率: 0.0001853
轨道倾角: 97.285°
近地点辐角 80.427°
升交点赤经 138.583°
平近点角 164.957°
近地点: 408.262km
远地点: 410.778km
周期: 92.755分钟
每日圈数: 15.52469
详细信息
固有亮度:
5
最大亮度:
2.5
卫星平台:
Starlink V1.0
覆盖范围:
全球
运营商:
太空探索技术公司
运营商所在国:
美国
制造商(研发单位):
太空探索技术公司
制造商所在国:
美国
使用方式:
暂无
卫星简介
Starlink 计划是 SpaceX 推出的全球卫星互联网项目,通过发射低轨道卫星,为全球尤其是偏远地区提供高速、低延迟的互联网服务。自 2019 年起,Starlink 已部署数千颗卫星,旨在缩小全球数字鸿沟,推动互联网普及。该项目还为军事、航空等行业提供通信支持,带来广泛经济效益。
2D轨道图
3D轨道图
轨道高度分析图
轨道倾角分析图
轨道综合分析图
查看轨道综合分析图